Home   Weather   Aspen   Past weeks
Flag for USA

Past Weather in Aspen, Colorado, USA — Yesterday and Last 2 Weeks

Now
64 °F

Sunny.


Feels Like: 64 °F
Forecast: 66 / 40 °F
Wind: 6 mph from North

Location: Aspen-Pitkin County Airport

Current Time: May 25, 2019 at 7:36:45 pm

Latest Report: May 25, 2019 at 6:53 pm


Visibility: 10 mi

Pressure: 29.77 "Hg (22.43 "Hg at 2411m altitude)

Humidity: 18%

Dew Point: 19 °F

Location of AspenLocation

Past Weather in Aspen — Graph

°F

Aspen Temperature Yesterday

Maximum temperature yesterday: 56 °F (at 6:53 pm)
Minimum temperature yesterday: 31 °F (at 3:53 am)
Average temperature yesterday: 43 °F

High & Low Weather Summary for the Past Weeks

 TemperatureHumidityPressure
High70 °F (May 15, 1:53 pm)96% (May 21, 9:23 am)30.28 "Hg (May 21, 9:23 am)
Low30 °F (May 11, 5:53 am)14% (May 25, 11:53 am)29.44 "Hg (May 17, 6:53 am)
Average44 °F62%29.76 "Hg
* Reported May 10 5:22 pm — May 25 5:53 pm, Aspen. Weather by CustomWeather, © 2019

Note: Actual official high and low records may vary slightly from our data, if they occured in-between our weather recording intervals... More about our weather records

Advertising

Aspen Weather History for the Previous 24 Hours

Scroll right to see more
 ConditionsComfort  
Time TempWeatherWind HumidityBarometerVisibility
5:53 pm
Sat, May 25
65 °FSunny.8 mph18%29.78 "Hg10 mi
4:53 pm66 °FSunny.9 mph17%29.77 "Hg10 mi
3:53 pm67 °FScattered clouds.15 mph16%29.75 "Hg10 mi
2:53 pm66 °FScattered clouds.10 mph16%29.76 "Hg10 mi
1:53 pm63 °FPassing clouds.3 mph15%29.79 "Hg10 mi
12:53 pm62 °FSunny.13 mph14%29.82 "Hg10 mi
11:53 am61 °FSunny.16 mph14%29.84 "Hg10 mi
10:53 am58 °FSunny.6 mph15%29.82 "Hg10 mi
9:53 am52 °FSunny.3 mph38%29.87 "Hg10 mi
8:53 am48 °FSunny.6 mph43%29.86 "Hg10 mi
7:53 am42 °FSunny.No wind47%29.88 "Hg10 mi
6:53 am33 °FSunny.No wind70%29.90 "Hg10 mi
5:53 am30 °FSunny.3 mph75%29.93 "Hg10 mi
4:53 am31 °FClear.6 mph76%29.92 "Hg10 mi
3:53 am32 °FClear.3 mph75%29.90 "Hg10 mi
2:53 am33 °FClear.9 mph75%29.91 "Hg10 mi
1:53 am35 °FClear.6 mph70%29.90 "Hg10 mi
12:53 am35 °FClear.5 mph72%29.92 "Hg10 mi
11:53 pm
Fri, May 24
37 °FClear.6 mph73%29.92 "Hg10 mi
10:53 pm42 °FPassing clouds.5 mph57%29.91 "Hg10 mi
9:53 pm40 °FClear.5 mph65%29.91 "Hg10 mi
8:53 pm47 °FClear.6 mph48%29.88 "Hg10 mi
7:53 pm52 °FPartly sunny.5 mph32%29.85 "Hg10 mi
Weather by CustomWeather, © 2019

See weather overview